Voltar ao catálogo

ARIANE 2 DEB

LostGTO
NORAD 27029·DEBRIS·🇫🇷 France

Lançado Jan 27, 1989 de Guiana Space Centre

Loading…

TLE

ObsoletoSource: Space-Track

Época: Jan 4, 2025, 03:33 UTC

1 27029U 89006J   25004.14830088  .00000162  00000-0  31320-2 0  9996
2 27029   8.9753   6.5111 7131022 219.4844  57.3217  2.28598478 95749

Acompanhe ARIANE 2 DEB em tempo real com AllMySat

Download on the App Store